[[{"header":{"parameterUnit":"m.s-1","parameterCategory":1,"la1":30.2991,"la2":30.254,"lo1":-89.0895,"lo2":-89.0444,"dy":0.0017,"dx":0.0017,"nx":28,"ny":28,"refTime":"2024-07-18T09:00:00:Z","depth":0,"parameterNumber":2,"parameterNumberName":"U-component_of_WINDS"},"data":[0,0,0,0,0,0,0,0,0,0,0,0,0,0,0,0,0,0,0,0,0,0,0,0,0,0,0,0,0,0,0,0,0,0,0,0,0,0,0,0,0,0,0,0,0,0,0,0,0,0,0,0,0,0,0,0,0,0,0.3326,0.3327,0,0.3404,0.3404,0.3405,0.3443,0.3443,0.3443,0.3443,0.3521,0.3523,0.3525,0,0,0,0,0,0,0,0,0,0,0,0,0,0.3208,0.321,0.3326,0.3327,0.3328,0.3403,0.3404,0.3406,0.3443,0.3443,0.3443,0.3443,0.352,0.3523,0.3525,0,0,0,0,0,0,0,0,0,0,0,0,0,0.327,0.3211,0.3326,0.3356,0.3359,0.3403,0.3405,0.3406,0.3443,0.3443,0.3443,0.3443,0.352,0.3523,0.3526,0.3545,0,0,0.3535,0.3537,0,0,0,0,0,0,0,0,0.3266,0.3274,0.335,0.3354,0.3358,0.3414,0.3392,0.3453,0.3443,0.3411,0.3443,0.3443,0.3485,0.3491,0.3506,0.3549,0.3552,0.3536,0.3537,0.3539,0.354,0,0,0,0,0,0,0,0.3262,0.3271,0.3357,0.3351,0.3356,0.3365,0.3373,0.3403,0.3447,0.3414,0.3417,0.3426,0.3487,0.3503,0.3508,0.3554,0.3535,0.3538,0.354,0.3541,0.3617,0.3617,0,0,0,0,0,0,0.3253,0.3267,0.3354,0.3359,0.3311,0.3367,0.3377,0.3396,0.3447,0.3455,0.3425,0.3427,0.3497,0.3504,0.3511,0.3538,0.3539,0.3542,0.3544,0.3617,0.3617,0.3617,0,0,0,0,0,0,0.3251,0.3261,0.3351,0.3314,0.3326,0.3369,0.339,0.3397,0.3413,0.3456,0.3464,0.3433,0.3498,0.3506,0.3537,0.3541,0.3543,0.3546,0.3617,0.3617,0.3617,0.3591,0,0,0,0,0,0,0.3247,0.3259,0.3268,0.3314,0.3328,0.3376,0.339,0.3399,0.3418,0.3421,0.3465,0.3473,0.3498,0.3532,0.354,0.3545,0.3548,0.3617,0.3617,0.3617,0.3592,0.359,0.3589,0,0,0,0,0,0.3243,0.3257,0.3268,0.3278,0.3339,0.3376,0.3384,0.3414,0.3418,0.3427,0.3455,0.3471,0.3539,0.3535,0.3544,0.355,0.3616,0.3617,0.3617,0.3592,0.359,0.3589,0,0,0,0,0,0,0.321,0.3264,0.3276,0.3306,0.3336,0.3382,0.3394,0.3411,0.344,0.3441,0.3476,0.3486,0.3513,0.3535,0.3529,0.3572,0.3579,0.3581,0.3557,0.3556,0.3554,0.3549,0.3551,0,0,0,0,0,0.3206,0.3232,0.3277,0.3299,0.3314,0.3351,0.3368,0.3389,0.3421,0.3434,0.3464,0.3494,0.3522,0.354,0.3568,0.3595,0.3605,0.3603,0.3602,0.3601,0.3602,0.3618,0.3618,0.3618,0.3618,0.3618,0,0,0.3199,0.3231,0.3246,0.3294,0.3319,0.3345,0.3362,0.3388,0.3407,0.3438,0.3469,0.3491,0.3527,0.3556,0.357,0.3575,0.3604,0.3601,0.36,0.3602,0.3618,0.3618,0.3618,0.3618,0.3618,0.3618,0,0,0.3199,0.3226,0.3247,0.3273,0.3312,0.3336,0.3341,0.3385,0.3401,0.3433,0.3456,0.3479,0.3526,0.3551,0.357,0.3579,0.3595,0.3587,0.358,0.3595,0.3595,0.3595,0.3598,0.3599,0.3588,0.3588,0.3588,0,0.3185,0.3225,0.3256,0.3281,0.3301,0.333,0.3352,0.3375,0.342,0.3434,0.3438,0.3499,0.3525,0.356,0.3562,0.3576,0.3583,0.3582,0.3592,0.3593,0.3593,0.3597,0.3598,0.3587,0.3587,0.3587,0.3587,0,0.3205,0.3233,0.3245,0.3289,0.3311,0.3334,0.3368,0.3386,0.3404,0.3428,0.3459,0.3492,0.3527,0.3537,0.3554,0.3574,0.3575,0.3585,0.3594,0.3591,0.3595,0.3597,0.3585,0.3585,0.3586,0.3586,0,0,0.3188,0.3248,0.3252,0.3273,0.3317,0.3339,0.3363,0.3398,0.3412,0.3443,0.3464,0.3503,0.3513,0.3534,0.3555,0.3567,0.3572,0.3576,0.3578,0.3575,0.3595,0.3588,0.3589,0.3583,0.3583,0.3584,0.3593,0,0.3194,0.3239,0.3268,0.3301,0.3327,0.3354,0.3375,0.3404,0.3427,0.3452,0.3477,0.3504,0.3515,0.3528,0.3542,0.3569,0.3577,0.3568,0.3603,0.3604,0.3593,0.3591,0.3583,0.359,0.3594,0.3594,0.3595,0,0.3208,0.3238,0.3274,0.3316,0.3327,0.3346,0.338,0.3403,0.3436,0.3452,0.3476,0.3496,0.3522,0.3528,0.3564,0.3557,0.3573,0.3588,0.3589,0.3594,0.3599,0.3596,0.3593,0.3594,0.3597,0.3597,0.3597,0,0.3191,0.3241,0.3269,0.3285,0.3334,0.3347,0.3368,0.3401,0.342,0.345,0.3462,0.3494,0.3512,0.3536,0.3564,0.3566,0.3598,0.3605,0.3611,0.3611,0.3618,0.3617,0.3617,0.3627,0.3627,0.3627,0.3626,0,0.3196,0.3217,0.3262,0.328,0.3304,0.3336,0.3359,0.3382,0.3411,0.3433,0.3458,0.3478,0.3515,0.3539,0.3561,0.3588,0.3596,0.3609,0.3615,0.3607,0.3605,0.3618,0.3619,0.3627,0.3627,0.3627,0.3627,0,0.3182,0.3213,0.3246,0.3289,0.3301,0.3317,0.3354,0.3372,0.3396,0.3423,0.3431,0.3469,0.3498,0.3529,0.3569,0.3584,0.361,0.3618,0.3599,0.3603,0.3607,0.3606,0.3616,0.3619,0.3626,0.3625,0.3625,0,0.3183,0.32,0.3246,0.3262,0.3283,0.3309,0.3329,0.3361,0.338,0.3419,0.3432,0.3464,0.3491,0.3537,0.3568,0.3598,0.3607,0.3609,0.3612,0.3604,0.3608,0.3607,0.3608,0.3607,0.3607,0.3607,0.3607,0,0.3182,0.3196,0.3224,0.3257,0.3279,0.3307,0.3335,0.3347,0.3384,0.3404,0.3435,0.3456,0.3498,0.3529,0.3563,0.3584,0.3602,0.3605,0.3609,0.3601,0.359,0.3596,0.3596,0.3605,0.3605,0.3605,0.3606,0.3606,0.3176,0.3192,0.3227,0.3257,0.3281,0.3307,0.3325,0.3352,0.3378,0.3414,0.3431,0.3462,0.3495,0.3543,0.3563,0.3588,0.3593,0.3597,0.3598,0.3599,0.3597,0.3585,0.3594,0.3594,0.3594,0.3594,0.3594,0,0.3176,0.32,0.3227,0.3265,0.3289,0.3303,0.3335,0.3353,0.338,0.3409,0.3436,0.3471,0.3501,0.3534,0.3566,0.3579,0.3588,0.3586,0.3586,0.3591,0.3591,0.3585,0.3579,0.3579,0.3579,0.3579,0.3579,0.3579,0.3179,0.3207,0.3226,0.3266,0.329,0.3321,0.3337,0.3361,0.3385,0.3423,0.3448,0.3469,0.35,0.3534,0.3562,0.3571,0.3582,0.3578,0.3589,0.3589,0.359,0.3592,0.3587,0.358,0.358,0.3587,0.3587,0.3587]},{"header":{"parameterUnit":"m.s-1","parameterCategory":1,"la1":30.2991,"la2":30.254,"lo1":-89.0895,"lo2":-89.0444,"dy":0.0017,"dx":0.0017,"nx":28,"ny":28,"refTime":"2024-07-18T09:00:00:Z","depth":0,"parameterNumber":3,"parameterNumberName":"V-component_of_WINDS"},"data":[0,0,0,0,0,0,0,0,0,0,0,0,0,0,0,0,0,0,0,0,0,0,0,0,0,0,0,0,0,0,0,0,0,0,0,0,0,0,0,0,0,0,0,0,0,0,0,0,0,0,0,0,0,0,0,0,0,0,-0.2112,-0.2112,0,-0.2199,-0.22,-0.2201,-0.2268,-0.2268,-0.2269,-0.227,-0.236,-0.2362,-0.2364,0,0,0,0,0,0,0,0,0,0,0,0,0,-0.2005,-0.2007,-0.2111,-0.2113,-0.2114,-0.2198,-0.22,-0.2201,-0.2268,-0.2268,-0.2269,-0.227,-0.236,-0.2362,-0.2364,0,0,0,0,0,0,0,0,0,0,0,0,0,-0.2068,-0.2008,-0.2111,-0.2157,-0.2162,-0.2198,-0.22,-0.2201,-0.2267,-0.2268,-0.2269,-0.227,-0.2359,-0.2362,-0.2365,-0.2363,0,0,-0.2373,-0.2374,0,0,0,0,0,0,0,0,-0.2064,-0.2072,-0.2149,-0.2154,-0.216,-0.2223,-0.2196,-0.2255,-0.2267,-0.2227,-0.227,-0.2271,-0.2314,-0.2321,-0.2335,-0.2367,-0.2371,-0.2373,-0.2375,-0.2376,-0.2377,0,0,0,0,0,0,0,-0.206,-0.2068,-0.2146,-0.215,-0.2157,-0.2174,-0.2184,-0.2207,-0.2265,-0.2231,-0.2236,-0.2245,-0.2317,-0.2332,-0.2338,-0.2372,-0.2373,-0.2376,-0.2377,-0.2378,-0.2407,-0.2406,0,0,0,0,0,0,-0.2048,-0.2064,-0.2143,-0.2149,-0.2113,-0.2175,-0.2186,-0.2202,-0.2264,-0.2275,-0.2244,-0.2248,-0.2327,-0.2334,-0.2341,-0.2343,-0.2376,-0.2379,-0.238,-0.2408,-0.2407,-0.2406,0,0,0,0,0,0,-0.2046,-0.2054,-0.214,-0.2108,-0.212,-0.2176,-0.2193,-0.2203,-0.2218,-0.2275,-0.2285,-0.2249,-0.2328,-0.2337,-0.2357,-0.2347,-0.238,-0.2382,-0.2409,-0.2408,-0.2406,-0.2346,0,0,0,0,0,0,-0.2042,-0.2053,-0.2052,-0.2107,-0.2121,-0.2153,-0.2192,-0.2204,-0.2222,-0.2228,-0.2282,-0.2292,-0.2329,-0.2352,-0.2359,-0.2351,-0.2384,-0.241,-0.2408,-0.2407,-0.2349,-0.2342,-0.2337,0,0,0,0,0,-0.2038,-0.2032,-0.2052,-0.2061,-0.2121,-0.2152,-0.216,-0.2204,-0.2221,-0.2221,-0.2258,-0.229,-0.2347,-0.2354,-0.2362,-0.2355,-0.2411,-0.2409,-0.2407,-0.2351,-0.2344,-0.2337,0,0,0,0,0,0,-0.1975,-0.204,-0.2063,-0.2074,-0.2107,-0.2163,-0.2165,-0.2194,-0.2223,-0.2227,-0.228,-0.2292,-0.2305,-0.2333,-0.2339,-0.2356,-0.2383,-0.2383,-0.2338,-0.2331,-0.2325,-0.2318,-0.2387,0,0,0,0,0,-0.1962,-0.1981,-0.2037,-0.2042,-0.2057,-0.2108,-0.2123,-0.2154,-0.219,-0.2204,-0.2242,-0.2277,-0.2303,-0.2319,-0.2346,-0.2353,-0.2366,-0.2353,-0.2347,-0.2342,-0.234,-0.2347,-0.2341,-0.2399,-0.2399,-0.2399,0,0,-0.1936,-0.1974,-0.1983,-0.203,-0.2059,-0.2078,-0.2119,-0.2138,-0.2152,-0.2207,-0.2228,-0.2257,-0.2299,-0.2312,-0.232,-0.2335,-0.2327,-0.2339,-0.2334,-0.2336,-0.2344,-0.2338,-0.2333,-0.2398,-0.2398,-0.2398,0,0,-0.1899,-0.1929,-0.1936,-0.1965,-0.2008,-0.2042,-0.2043,-0.2096,-0.2117,-0.2138,-0.218,-0.2199,-0.2242,-0.227,-0.229,-0.2264,-0.2294,-0.2271,-0.224,-0.2246,-0.2241,-0.2237,-0.2227,-0.2223,-0.227,-0.227,-0.227,0,-0.1861,-0.189,-0.1936,-0.1952,-0.1972,-0.2022,-0.203,-0.2056,-0.2106,-0.2119,-0.2135,-0.219,-0.2222,-0.2243,-0.2236,-0.2251,-0.2255,-0.2265,-0.2238,-0.2234,-0.2232,-0.2223,-0.2219,-0.2267,-0.2267,-0.2268,-0.2268,0,-0.1842,-0.1861,-0.1862,-0.1908,-0.1929,-0.194,-0.1989,-0.2004,-0.2033,-0.2065,-0.2086,-0.2127,-0.2163,-0.217,-0.2199,-0.2195,-0.2203,-0.2228,-0.2255,-0.2222,-0.2215,-0.2212,-0.2262,-0.2264,-0.2264,-0.2265,0,0,-0.1765,-0.1837,-0.1837,-0.1858,-0.191,-0.1927,-0.1941,-0.1976,-0.1988,-0.2021,-0.2034,-0.207,-0.2093,-0.2116,-0.2149,-0.2153,-0.2129,-0.2178,-0.218,-0.2167,-0.2127,-0.2108,-0.2103,-0.215,-0.215,-0.215,-0.2124,0,-0.1735,-0.1762,-0.1805,-0.1819,-0.1838,-0.1887,-0.1899,-0.1933,-0.1964,-0.1985,-0.202,-0.2044,-0.2073,-0.2087,-0.2094,-0.2131,-0.2122,-0.2133,-0.2164,-0.2164,-0.215,-0.2099,-0.2079,-0.2052,-0.2121,-0.2121,-0.212,0,-0.1703,-0.1732,-0.1748,-0.1798,-0.1808,-0.1818,-0.1854,-0.1874,-0.1913,-0.1935,-0.1961,-0.1996,-0.2015,-0.204,-0.2066,-0.2073,-0.2088,-0.2108,-0.2108,-0.2112,-0.2139,-0.2101,-0.2045,-0.204,-0.2116,-0.2117,-0.2117,0,-0.1644,-0.1689,-0.1704,-0.1721,-0.178,-0.1787,-0.1812,-0.1852,-0.187,-0.1902,-0.1914,-0.1947,-0.1965,-0.1991,-0.2034,-0.2049,-0.2056,-0.2085,-0.2075,-0.2073,-0.2073,-0.2072,-0.2017,-0.2084,-0.2084,-0.2084,-0.2084,0,-0.1605,-0.1613,-0.1678,-0.1687,-0.1697,-0.1747,-0.1755,-0.1785,-0.1821,-0.1837,-0.1882,-0.1897,-0.1954,-0.1975,-0.201,-0.2026,-0.2034,-0.2053,-0.2062,-0.2048,-0.2046,-0.2058,-0.2061,-0.2083,-0.2083,-0.2083,-0.2084,0,-0.1541,-0.1585,-0.1605,-0.166,-0.1674,-0.1679,-0.1726,-0.1737,-0.1771,-0.1791,-0.1799,-0.1852,-0.188,-0.1926,-0.1967,-0.1991,-0.2,-0.2016,-0.1986,-0.1991,-0.1978,-0.1978,-0.1928,-0.1924,-0.1994,-0.1993,-0.1992,0,-0.1513,-0.1519,-0.1575,-0.1589,-0.1612,-0.1634,-0.1653,-0.1703,-0.172,-0.1766,-0.1772,-0.1803,-0.183,-0.1872,-0.1914,-0.1946,-0.1963,-0.1943,-0.1968,-0.1954,-0.1961,-0.196,-0.1961,-0.1937,-0.1936,-0.1935,-0.1934,0,-0.1457,-0.1479,-0.1504,-0.1536,-0.1557,-0.1586,-0.1616,-0.1625,-0.1682,-0.17,-0.1728,-0.1749,-0.1791,-0.1821,-0.1859,-0.1886,-0.1919,-0.1926,-0.1926,-0.1911,-0.1893,-0.1902,-0.197,-0.1927,-0.1928,-0.1928,-0.1929,-0.1929,-0.141,-0.1418,-0.1458,-0.1485,-0.1513,-0.1541,-0.1554,-0.1589,-0.1614,-0.1651,-0.1679,-0.1706,-0.1746,-0.18,-0.1825,-0.1847,-0.1862,-0.1861,-0.1861,-0.1859,-0.1854,-0.1891,-0.1854,-0.1855,-0.1855,-0.1855,-0.1855,0,-0.1356,-0.1385,-0.1408,-0.145,-0.147,-0.15,-0.1536,-0.1551,-0.1574,-0.1608,-0.1634,-0.1667,-0.1697,-0.1742,-0.1775,-0.1784,-0.18,-0.1791,-0.179,-0.1796,-0.1839,-0.1836,-0.1777,-0.1777,-0.1777,-0.1777,-0.1777,-0.1777,-0.133,-0.1346,-0.1372,-0.1402,-0.1432,-0.1457,-0.1475,-0.1501,-0.1529,-0.1563,-0.1588,-0.1617,-0.1656,-0.1693,-0.1721,-0.1734,-0.1744,-0.173,-0.1747,-0.1786,-0.1793,-0.18,-0.1797,-0.1732,-0.1732,-0.1702,-0.1702,-0.1702]}]]